GW6833 Weather Reports


Display with metric or nautical units.
time (UTC)temp
F
wind
direction
speed
MPH
gust
MPH
rain 1hr
in
rain 24hr
in
rain mn
in
humidity
%
barometer
mb
20260504184806 59 352 18.0 25.0 0.00 0.00 0.00 35 1011.0
20260504184301 60 355 21.0 25.0 0.00 0.00 0.00 35 1010.6
20260504183757 60 17 16.0 24.0 0.00 0.00 0.00 33 1010.6
20260504183254 61 5 22.0 31.0 0.00 0.00 0.00 33 1010.6
20260504182753 59 8 17.0 27.0 0.00 0.00 0.00 34 1010.5
20260504182249 59 4 22.0 25.0 0.00 0.00 0.00 36 1010.5
20260504181747 58 4 18.0 26.0 0.00 0.00 0.00 36 1010.4
20260504181244 58 357 21.0 26.0 0.00 0.00 0.00 36 1010.8
20260504180743 59 348 13.0 24.0 0.00 0.00 0.00 36 1010.6
20260504180241 59 0 19.0 31.0 0.00 0.00 0.00 34 1010.9
20260504175739 59 0 20.0 26.0 0.00 0.00 0.00 34 1010.5
20260504175235 59 10 19.0 25.0 0.00 0.00 0.00 33 1010.8
20260504174733 61 345 22.0 30.0 0.00 0.00 0.00 32 1010.8
20260504174231 62 10 18.0 28.0 0.00 0.00 0.00 30 1010.8
20260504173727 62 5 23.0 27.0 0.00 0.00 0.00 30 1010.6
20260504173224 63 2 19.0 24.0 0.00 0.00 0.00 30 1010.3
20260504172721 62 11 18.0 26.0 0.00 0.00 0.00 28 1010.5
20260504172217 61 359 19.0 23.0 0.00 0.00 0.00 29 1010.6
20260504171714 63 344 14.0 17.0 0.00 0.00 0.00 27 1010.5
20260504171211 63 0 7.0 7.0 0.00 0.00 0.00 22 1010.6
20260504170708 63 313 6.0 8.0 0.00 0.00 0.00 22 1010.4
20260504170205 63 312 9.0 13.0 0.00 0.00 0.00 22 1010.3
20260504160124 63 278 6.0 14.0 0.00 0.00 0.00 22 1010.4
20260504151051 62 281 11.0 15.0 0.00 0.00 0.00 22 1010.5
20260504150548 62 284 11.0 15.0 0.00 0.00 0.00 23 1010.5
20260504141014 57 315 13.0 17.0 0.00 0.00 0.00 28 1010.4
20260504140511 58 329 11.0 17.0 0.00 0.00 0.00 28 1010.3
20260504130435 47 357 4.0 7.0 0.00 0.00 0.00 38 1010.3
20260504110322 47 235 12.0 15.0 0.00 0.00 0.00 42 1009.9
20260504100240 45 245 8.0 12.0 0.00 0.00 0.00 46 1010.3
20260504081633 39 268 5.0 7.0 0.00 0.00 0.00 62 1011.7
20260504081129 39 276 4.0 4.0 0.00 0.00 0.00 61 1011.7
20260504080626 40 278 4.0 5.0 0.00 0.00 0.00 60 1011.6
20260504080122 40 263 4.0 5.0 0.00 0.00 0.00 59 1011.9
20260504050439 44 246 3.0 3.0 0.00 0.00 0.00 51 1013.2
20260504045936 44 246 3.0 3.0 0.00 0.00 0.00 51 1013.5
20260504045431 43 222 4.0 5.0 0.00 0.00 0.00 54 1013.2
20260504044927 43 222 4.0 5.0 0.00 0.00 0.00 54 1013.3
20260504044425 45 287 4.0 4.0 0.00 0.00 0.00 49 1013.2
20260504043923 45 287 4.0 4.0 0.00 0.00 0.00 49 1013.3
20260504043420 45 287 4.0 4.0 0.00 0.00 0.00 49 1013.2
20260504042917 45 287 4.0 4.0 0.00 0.00 0.00 49 1013.3
20260504042413 45 287 4.0 4.0 0.00 0.00 0.00 49 1013.5
20260504041910 45 287 4.0 4.0 0.00 0.00 0.00 49 1013.7
20260504041406 45 287 4.0 4.0 0.00 0.00 0.00 49 1013.5
20260504040902 46 295 5.0 5.0 0.00 0.00 0.00 48 1013.5
20260504040400 46 309 4.0 4.0 0.00 0.00 0.00 47 1013.5
20260504035855 47 318 4.0 4.0 0.00 0.00 0.00 46 1013.4
20260504035353 47 318 4.0 4.0 0.00 0.00 0.00 46 1013.5
20260504034850 47 327 4.0 4.0 0.00 0.00 0.00 46 1013.5
20260504034347 48 330 4.0 4.0 0.00 0.00 0.00 45 1013.5
20260504033844 47 345 2.0 3.0 0.00 0.00 0.00 45 1013.4
20260504033342 48 332 2.0 3.0 0.00 0.00 0.00 45 1013.4
20260504032838 48 354 2.0 2.0 0.00 0.00 0.00 44 1013.4
20260504032336 48 333 2.0 3.0 0.00 0.00 0.00 44 1013.5
20260504031833 48 5 2.0 2.0 0.00 0.00 0.00 43 1013.3
20260504031330 49 359 3.0 3.0 0.00 0.00 0.00 43 1013.5
20260504030826 49 10 2.0 3.0 0.00 0.00 0.00 42 1013.3
20260504030324 50 26 3.0 5.0 0.00 0.00 0.00 41 1013.4
20260504025819 51 29 3.0 6.0 0.00 0.00 0.00 40 1013.2
20260504025317 51 45 7.0 7.0 0.00 0.00 0.00 40 1013.2
20260504024813 51 70 5.0 6.0 0.00 0.00 0.00 40 1013.3
20260504024310 52 62 4.0 6.0 0.00 0.00 0.00 38 1013.3
20260504023806 53 34 2.0 6.0 0.00 0.00 0.00 37 1013.2
20260504023303 53 33 4.0 5.0 0.00 0.00 0.00 36 1013.2
20260504022759 53 56 5.0 9.0 0.00 0.00 0.00 36 1013.2
20260504022255 54 58 6.0 10.0 0.00 0.00 0.00 35 1013.1
20260504021752 54 41 5.0 9.0 0.00 0.00 0.00 35 1013.1
20260504021250 55 35 6.0 8.0 0.00 0.00 0.00 34 1013.1
20260504020747 55 45 4.0 8.0 0.00 0.00 0.00 34 1013.2
20260504020243 55 10 6.0 7.0 0.00 0.00 0.00 33 1013.2
20260504015739 56 28 6.0 6.0 0.00 0.00 0.00 33 1013.2
20260504015236 56 18 4.0 9.0 0.00 0.00 0.00 33 1013.1
20260504014731 57 9 8.0 10.0 0.00 0.00 0.00 32 1012.9
20260504014228 57 14 9.0 13.0 0.00 0.00 0.00 31 1013.1
20260504013726 58 38 8.0 12.0 0.00 0.00 0.00 31 1012.8
20260504013224 58 27 12.0 15.0 0.00 0.00 0.00 30 1012.9
20260504012720 59 33 11.0 14.0 0.00 0.00 0.00 29 1012.9
20260504012218 60 17 8.0 14.0 0.00 0.00 0.00 28 1013.1
20260504011715 61 358 11.0 17.0 0.00 0.00 0.00 26 1012.9
20260504011211 64 330 17.0 24.0 0.00 0.00 0.00 20 1012.9
20260504010707 64 279 7.0 7.0 0.00 0.00 0.00 19 1012.5
20260504010203 64 301 20.0 21.0 0.00 0.00 0.00 19 1012.9
20260504005700 64 272 12.0 21.0 0.00 0.00 0.00 19 1012.6
20260504005157 64 310 13.0 14.0 0.00 0.00 0.00 18 1012.6
20260504004655 64 325 14.0 17.0 0.00 0.00 0.00 18 1012.7
20260504004151 64 323 10.0 15.0 0.00 0.00 0.00 18 1012.7
20260504003648 64 317 12.0 17.0 0.00 0.00 0.00 18 1012.7
20260504003145 64 336 13.0 15.0 0.00 0.00 0.00 20 1012.8
20260504002641 64 358 10.0 13.0 0.00 0.00 0.00 22 1012.7
20260504002139 64 0 11.0 19.0 0.00 0.00 0.00 21 1012.6
20260504001637 65 319 9.0 19.0 0.00 0.00 0.00 17 1012.6
20260504001132 66 315 24.0 26.0 0.00 0.00 0.00 17 1012.5
20260504000630 66 303 19.0 23.0 0.00 0.00 0.00 15 1012.6
20260504000127 67 302 19.0 21.0 0.00 0.00 0.00 15 1012.5
20260503235625 68 293 18.0 26.0 0.00 0.00 0.00 15 1012.3
20260503235122 66 292 13.0 17.0 0.00 0.00 0.00 15 1012.6
20260503234620 67 302 17.0 19.0 0.00 0.00 0.00 15 1012.6
20260503234118 66 304 16.0 19.0 0.00 0.00 0.00 16 1012.6
20260503233614 67 320 18.0 21.0 0.00 0.00 0.00 15 1012.6
20260503233110 67 316 19.0 28.0 0.00 0.00 0.00 15 1012.5
20260503232607 67 303 14.0 20.0 0.00 0.00 0.00 15 1012.6
20260503232104 66 277 13.0 14.0 0.00 0.00 0.00 15 1012.9
20260503231602 67 296 16.0 22.0 0.00 0.00 0.00 14 1012.7
20260503231059 68 269 18.0 20.0 0.00 0.00 0.00 14 1012.5
20260503230555 67 265 12.0 18.0 0.00 0.00 0.00 14 1012.7
20260503230053 67 306 15.0 18.0 0.00 0.00 0.00 14 1012.7
20260503225549 66 297 14.0 23.0 0.00 0.00 0.00 15 1012.8
20260503225044 66 308 11.0 17.0 0.00 0.00 0.00 14 1012.7
20260503224542 67 277 11.0 14.0 0.00 0.00 0.00 15 1012.6
20260503224040 67 309 14.0 21.0 0.00 0.00 0.00 14 1012.9
20260503223538 67 285 14.0 18.0 0.00 0.00 0.00 14 1012.8
20260503223033 66 296 11.0 18.0 0.00 0.00 0.00 15 1012.9
20260503222532 66 288 15.0 21.0 0.00 0.00 0.00 14 1012.9
20260503222029 66 288 13.0 18.0 0.00 0.00 0.00 14 1013.1
20260503221527 66 280 14.0 20.0 0.00 0.00 0.00 14 1012.9
20260503221024 67 296 13.0 17.0 0.00 0.00 0.00 14 1013.3
20260503220520 67 285 10.0 13.0 0.00 0.00 0.00 15 1012.9
20260503220017 67 289 18.0 19.0 0.00 0.00 0.00 15 1012.9
20260503215515 66 286 13.0 25.0 0.00 0.00 0.00 16 1013.1
20260503215012 66 293 8.0 15.0 0.00 0.00 0.00 16 1013.3
20260503214510 66 325 11.0 14.0 0.00 0.00 0.00 15 1013.4
20260503214006 66 302 11.0 16.0 0.00 0.00 0.00 16 1013.4
20260503213505 66 302 12.0 21.0 0.00 0.00 0.00 15 1013.5
20260503213001 67 285 11.0 17.0 0.00 0.00 0.00 15 1013.8
20260503212458 67 287 12.0 15.0 0.00 0.00 0.00 15 1013.5
20260503211955 67 246 9.0 17.0 0.00 0.00 0.00 15 1013.9
20260503211453 66 272 7.0 15.0 0.00 0.00 0.00 15 1013.8
20260503210948 67 277 14.0 15.0 0.00 0.00 0.00 15 1013.8
20260503210445 66 271 9.0 15.0 0.00 0.00 0.00 16 1014.0
20260503205945 66 259 14.0 19.0 0.00 0.00 0.00 17 1014.0
20260503205443 66 296 8.0 17.0 0.00 0.00 0.00 16 1014.2
20260503204939 65 263 6.0 11.0 0.00 0.00 0.00 18 1014.3
20260503204436 65 275 4.0 8.0 0.00 0.00 0.00 19 1014.3
20260503203933 65 292 4.0 7.0 0.00 0.00 0.00 20 1014.5
20260503203430 65 279 9.0 10.0 0.00 0.00 0.00 18 1014.6
20260503202927 65 266 6.0 6.0 0.00 0.00 0.00 22 1014.6
20260503202425 64 298 5.0 6.0 0.00 0.00 0.00 21 1014.5
20260503201924 64 330 4.0 6.0 0.00 0.00 0.00 23 1014.9
20260503201420 64 348 2.0 3.0 0.00 0.00 0.00 22 1014.8
20260503200918 63 277 4.0 9.0 0.00 0.00 0.00 22 1015.0
20260503200414 64 327 11.0 12.0 0.00 0.00 0.00 22 1015.1
20260503195911 64 289 3.0 5.0 0.00 0.00 0.00 23 1015.0
20260503195408 64 107 2.0 6.0 0.00 0.00 0.00 22 1015.0
20260503194905 64 11 2.0 6.0 0.00 0.00 0.00 22 1015.0
20260503194401 64 286 2.0 6.0 0.00 0.00 0.00 22 1015.1
20260503193857 64 216 2.0 9.0 0.00 0.00 0.00 23 1015.2
20260503193353 65 217 9.0 9.0 0.00 0.00 0.00 24 1015.4
20260503192849 64 117 3.0 7.0 0.00 0.00 0.00 23 1015.5
20260503192345 64 97 5.0 9.0 0.00 0.00 0.00 23 1015.0
20260503191841 63 56 2.0 8.0 0.00 0.00 0.00 24 1015.2
20260503191338 63 237 4.0 8.0 0.00 0.00 0.00 24 1015.4
20260503190835 63 253 2.0 4.0 0.00 0.00 0.00 23 1015.5
20260503190332 62 277 4.0 6.0 0.00 0.00 0.00 24 1015.7
20260503185829 63 324 8.0 9.0 0.00 0.00 0.00 24 1015.9
20260503185325 63 268 4.0 6.0 0.00 0.00 0.00 24 1016.1